Location: Abbie Creek Public Use Area
(31.4127°N, 85.0799°W)
Time: 00:42:47
(UTC+00:00)

Daily predictions for brighter satellites

Satellite Brightness Start Highest point End
(mag) Time Altitude Azimuth Time Altitude Azimuth Time Altitude Azimuth
MOS 1 Rocket 4.0 00:03:00 10° NE 00:06:38 26° E 00:10:12 10° SSE
Cosmos 1975 Rocket 4.3 00:03:57 10° NNE 00:07:11 20° ENE 00:10:23 10° SE
Cosmos 1674 Rocket 3.8 00:02:58 10° N 00:07:26 80° W 00:11:52 10° S
CZ-4 R/B 4.4 00:05:30 10° SSE 00:09:36 79° ENE 00:13:43 10° N
USA 234 3.8 00:03:56 10° ENE 00:09:52 36° SE 00:15:45 10° S
COSMO-SKYMED 1 4.1 00:06:34 10° N 00:10:41 43° WNW 00:14:46 10° SW
ISS -3.1 00:11:23 10° WSW 00:14:41 56° NW 00:18:00 10° NE
Sich 1 Rocket 4.3 00:10:50 10° SSE 00:14:46 32° E 00:18:46 10° NNE
H-2A R/B 2.7 00:14:42 10° SE 00:18:57 30° ENE 00:23:17 10° N
Iridium 4 Rocket 3.3 00:17:48 10° S 00:22:28 86° E 00:27:38 10° N
ARGOS 4.1 00:18:27 10° SE 00:22:49 26° ENE 00:27:12 10° NNE
Cosmos 158 Rocket 3.9 00:18:09 10° NNW 00:23:22 73° ENE 00:28:25 10° SSE
GPS 2-04 Rocket1 3.8 00:24:02 10° W 00:27:59 41° SSW 00:31:48 10° SE
SJ 16-02 4.2 00:24:55 10° WSW 00:28:15 21° WNW 00:31:36 10° NNW
Cosmos 1437 3.2 00:27:29 10° NNE 00:30:14 33° E 00:32:46 11° SE
Cosmos 1939 Rocket 4.2 00:27:32 10° S 00:31:26 43° W 00:35:23 10° NNW
Helios 1A Rocket 4.3 00:28:37 10° S 00:32:28 41° W 00:36:22 10° NNW
Milstar 3 Cent rocket 3.3 00:26:38 10° SW 00:33:49 35° SSE 00:37:15 17° ESE
CZ-2C R/B 3.5 00:29:17 10° NE 00:34:02 28° E 00:38:48 10° SSE
Okean 2 Rocket 3.7 00:30:31 10° SSE 00:34:32 33° E 00:38:35 10° NNE
NOSS 2-2 (E) 4.4 00:31:16 10° SW 00:34:37 41° WNW 00:38:01 10° NNE
SL-16 R/B 4.0 00:31:22 10° NW 00:36:22 33° WSW 00:41:21 10° SSW
CZ-2D R/B 4.4 00:34:15 10° S 00:37:59 47° W 00:41:45 10° NNW
Okean-O 3.4 00:34:06 10° S 00:38:25 55° W 00:42:46 10° NNW
ATLAS 2AS CENTAUR R/B 4.1 00:33:40 10° SE 00:38:29 18° ESE 00:40:33 16° E
Cosmos 2263 Rocket 3.5 00:33:24 10° SW 00:38:38 42° WNW 00:43:55 10° N
HJ-1C 3.5 00:37:01 10° SSE 00:40:11 49° ENE 00:43:23 10° N
SJ-11-01 4.3 00:35:55 10° SSE 00:40:32 57° ENE 00:45:09 10° N
Cosmos 1900 4.4 00:35:54 10° NNW 00:41:05 86° ENE 00:46:13 10° SSE
NOSS 2-2 (D) 4.2 00:39:42 10° SW 00:43:07 44° WNW 00:46:32 10° NNE
GOES 2 Rocket 3.8 00:39:30 10° SW 00:43:17 34° SSE 00:45:16 23° ESE
DELTA 2 R/B (1) 4.2 00:37:59 10° WNW 00:43:19 46° NNE 00:46:52 20° E
CZ-2C R/B 3.0 00:38:24 10° SSE 00:43:28 78° ENE 00:48:51 10° N
Cosmos 1844 Rocket 3.1 00:40:47 10° S 00:45:48 36° ESE 00:50:51 10° NE
Cosmos 1300 Rocket 3.8 00:42:25 10° SSE 00:46:34 45° E 00:50:47 10° NNE
SEDSat Delta rocket 4.2 00:46:31 10° W 00:51:26 39° SSW 00:54:18 19° SE
Cosmos 1513 Rocket 4.5 00:45:22 10° S 00:51:37 65° E 00:57:46 10° NNE
Ariane Rocket 3.9 00:50:37 24° E 00:52:01 28° ENE 00:56:18 10° NNE
YAOGAN 1 3.4 00:48:10 10° S 00:52:22 52° W 00:56:36 10° NNW
USA 186 3.8 00:54:52 15° NNE 00:54:52 15° NNE 00:55:47 10° NNE
Exosat Rocket 4.2 00:52:13 10° S 00:58:12 38° ESE 01:03:02 10° NE
Cosmos 1464 Rocket 3.8 00:53:53 10° S 00:59:57 74° E 01:06:05 10° N
Cosmos 2298 Rocket 3.9 00:55:49 10° S 01:01:04 66° ESE 01:06:22 10° NNE
Meteor 1-12 Rocket 4.2 00:56:03 10° S 01:02:00 79° E 01:07:53 10° N
Cosmos 1943 3.1 00:56:38 10° NNW 01:02:18 77° ENE 01:06:43 17° SSE
CZ-4 R/B 3.8 01:06:41 10° SSW 01:10:08 24° W 01:13:37 10° NW
CSL-04 Rocket 4.3 01:09:56 10° S 01:15:10 56° W 01:20:32 10° NNW
Cosmos 2151 Rocket 3.4 01:11:20 10° S 01:15:44 74° E 01:20:11 10° N
Cosmos 1867 3.9 01:15:46 10° NNW 01:20:58 44° ENE 01:21:22 43° ENE
Cosmos 1603 4.2 01:16:26 10° NNW 01:21:58 58° WSW 01:26:55 13° S
USA 102 4.1 01:22:51 67° NW 01:22:51 67° NW 01:28:52 10° NNW
CZ-2C R/B 1.7 01:18:54 10° WNW 01:22:04 43° NNW 01:22:04 43° NNW
Cosmos 1025 Rocket 3.1 01:19:57 10° N 01:23:51 58° NE 01:23:51 58° NE
Cosmos 2150 Rocket 4.3 01:25:49 10° SSW 01:31:05 69° WNW 01:36:30 10° N
DMSP B5D2-2 4.0 01:29:09 10° N 01:34:27 84° WNW 01:39:43 10° SSW
BREEZE-M DEB (TANK) 4.4 01:36:58 10° NNW 01:41:07 42° NE 01:42:24 39° ENE
Cosmos 1125 Rocket 3.4 01:35:56 10° SSW 01:41:14 86° WNW 01:46:34 10° NNE
Resurs 01 Rocket 4.2 01:49:34 10° NNE 01:49:34 10° NNE 01:49:39 10° NNE
Cosmos 1707 4.0 01:42:54 10° NNW 01:46:28 38° W 01:46:32 38° W
Cosmos 2084 Rocket 4.3 01:42:15 10° NW 01:46:34 46° WSW 01:46:47 46° SW
USA 234 4.0 01:46:35 10° NNE 01:52:51 51° NW 01:59:07 10° WSW
H-2A R/B 4.2 01:54:34 10° SW 01:58:20 22° W 02:02:10 10° NW
Nadezhda 4 Rocket 4.0 01:56:13 10° N 02:02:19 73° W 02:03:08 64° SW
CZ-2C R/B 4.4 02:09:24 10° N 02:14:10 30° WNW 02:19:00 10° SW
ATLAS 2AS CENTAUR R/B 3.0 02:20:47 10° SSW 02:33:18 28° NNE 02:36:38 10° NNE
CENTAUR R/B 3.7 02:41:01 10° NNW 02:47:17 51° N 02:47:17 51° N
IDEFIX/ARIANE 42P 4.3 08:34:36 10° NNE 08:36:52 26° NNE 08:36:52 26° NNE
H-2A R/B 4.0 08:57:24 10° SE 09:01:02 27° ENE 09:04:46 10° NNE
BREEZE-M DEB (TANK) 3.9 09:13:55 54° W 09:15:57 71° NW 09:20:21 10° NE
SL-4 R/B 3.0 09:19:51 49° ESE 09:19:51 49° ESE 09:24:00 10° NE
CZ-2C R/B 3.1 09:15:32 10° NNE 09:20:35 54° E 09:23:04 29° SSE
Cosmos 1980 Rocket 3.2 09:22:31 34° NNW 09:22:31 34° NNW 09:26:16 10° N
Cosmos 1339 Rocket 4.4 09:22:54 48° S 09:24:49 85° W 09:31:05 10° N
PAYLOAD A 3.9 09:21:34 10° NNE 09:26:15 72° ESE 09:26:52 62° SSE
Cosmos 2322 Rocket 3.3 09:22:33 17° SSE 09:26:33 42° ESE 09:31:53 10° NE
Landsat 5 4.1 09:22:27 10° SSE 09:26:52 60° ENE 09:31:19 10° N
Meteor 1-10 Rocket 4.4 09:25:24 25° S 09:28:47 71° E 09:34:34 10° NNE
SL-16 R/B 2.5 09:31:25 29° S 09:34:19 65° ESE 09:39:56 10° NNE
Cosmos 2263 Rocket 3.8 09:31:57 10° N 09:37:07 35° ENE 09:42:15 10° SE
Chandra Rocket (1) 4.0 09:31:38 31° W 09:39:40 64° SSW 09:45:18 10° ESE
Meteor 1-14 Rocket 4.1 09:37:25 10° NNW 09:42:56 65° W 09:48:22 10° S
NOSS 3-3 (A) 4.2 09:45:00 41° WNW 09:45:37 42° NW 09:51:27 10° NNE
NOSS 3-3 (C) 4.1 09:45:10 41° WNW 09:45:45 42° NW 09:51:32 10° NNE
CSL-04 DEB 4.3 09:43:55 10° S 09:48:08 78° WSW 09:52:29 10° NNW
Meteor 2-6 Rocket 4.2 09:48:56 40° SW 09:50:39 56° W 09:56:17 10° N
deb Chang Zheng 4 4.2 09:47:37 10° NNE 09:51:49 54° E 09:55:58 10° S
Cosmos 1238 Rocket 4.0 09:45:52 10° NNW 09:52:09 53° W 09:57:47 10° SSW
Cosmos 1707 Rocket 3.7 09:49:39 11° S 09:53:47 71° E 09:58:07 10° N
Cosmos 921 Rocket 4.0 09:55:09 29° NW 09:55:09 29° NW 09:57:51 10° N
IRIDIUM 104 4.2 09:52:53 10° N 09:58:07 83° W 10:03:19 10° S
Cosmos 2228 Rocket 4.4 10:01:21 24° NW 10:01:21 24° NW 10:03:48 10° NNW
Meteor 1-5 Rocket 4.0 09:54:57 10° N 10:00:19 88° W 10:05:46 10° S
IRIDIUM 114 4.2 10:02:04 10° N 10:07:15 67° W 10:12:24 10° S
Meteor 1-4 Rocket 3.1 10:09:30 36° WNW 10:09:30 36° WNW 10:12:18 10° N
USA 32 4.1 10:06:25 10° N 10:11:41 80° E 10:16:55 10° S
Skynet4D Del rocket 4.0 10:09:50 28° WSW 10:12:41 56° S 10:18:47 10° ESE
ADEOS 3.5 10:09:55 10° N 10:15:08 79° WNW 10:20:20 10° SSW
IRIDIUM 103 4.4 10:11:18 10° NNW 10:16:21 53° W 10:21:24 10° SSW
ADEOS Rocket 3.3 10:10:45 10° SSE 10:17:58 86° WSW 10:24:29 10° NNW
Cosmos 1536 3.6 10:14:18 10° N 10:18:18 55° E 10:22:15 10° SSE
USA 234 3.2 10:13:32 10° SE 10:20:02 77° SW 10:26:35 10° NW
DELTA 4 R/B 3.9 10:09:17 19° W 10:20:05 51° SSW 10:24:34 10° SE
Cosmos 1733 Rocket 4.4 10:15:59 10° N 10:20:07 42° E 10:24:12 10° SSE
Cosmos 1484 Rocket 2.7 10:17:43 10° N 10:21:43 84° W 10:25:42 10° SSW
Cosmos 1869 Rocket 3.9 10:21:08 10° NNW 10:25:11 40° W 10:29:13 10° SSW
ALOS 2.2 10:20:48 10° N 10:25:29 84° WNW 10:30:08 10° SSW
Meteor 1-11 Rocket 3.7 10:21:37 10° N 10:27:22 80° W 10:32:58 10° S
Cosmos 1814 Rocket 4.2 10:22:22 10° S 10:27:30 74° ESE 10:32:42 10° NNE
Cosmos 1862 Rocket 3.6 10:23:14 10° S 10:27:38 82° E 10:32:01 10° N
ERS-2 2.6 10:24:36 10° S 10:28:01 37° W 10:31:27 10° NNW
Cosmos 1437 Rocket 4.0 10:25:43 10° SSE 10:29:16 42° E 10:32:51 10° NNE
FALCON 9 DEB 4.4 10:31:12 20° WNW 10:32:30 25° NW 10:35:25 10° NNE
Meteor 1-31 Rocket 2.6 10:28:43 10° N 10:32:32 75° WNW 10:36:22 10° SSW
Cosmos 841 Rocket 3.4 10:27:29 10° SSW 10:32:39 75° WNW 10:37:54 10° NNE
Meteor 1-27 Rocket 4.0 10:27:15 10° SSW 10:32:57 50° W 10:38:42 10° N
H-2A R/B 3.3 10:33:52 10° SW 10:36:57 19° W 10:40:05 10° NW
SJ 16-02 1.6 10:36:08 10° NNW 10:40:18 43° W 10:44:28 10° S
Meteor PRIRODA 4.2 10:38:23 10° NNE 10:42:00 60° E 10:45:35 10° S
Cosmos 1763 Rocket 4.5 10:38:57 11° SW 10:43:10 28° WNW 10:47:43 10° N
Cosmos 1570 Rocket 4.1 10:40:09 10° SSW 10:45:20 57° WNW 10:50:35 10° N
Cosmos 2016 Rocket 4.5 10:41:10 10° N 10:47:14 66° E 10:53:16 10° SSE
Cosmos 2360 Rocket 2.3 10:49:17 10° SSW 10:54:50 58° WNW 11:00:25 10° N
Meteor 2-20 Rocket 4.5 10:49:35 10° S 10:55:45 87° W 11:01:55 10° N
Cosmos 1515 4.2 10:52:48 10° S 10:56:33 63° E 11:00:18 10° NNE
CZ-4B R/B 2.2 10:53:58 10° SSW 10:56:36 25° W 10:59:16 10° NW
CZ-2C R/B 4.2 10:55:31 10° NW 10:58:17 15° WNW 11:01:03 10° W
SJ-12 4.0 10:54:15 10° N 10:58:20 61° WNW 11:02:23 10° SSW
SL-4 R/B 3.7 10:55:40 10° W 10:59:24 24° NNW 11:03:17 10° NNE
COSMO-SKYMED 1 2.9 10:55:50 10° SSE 11:00:09 75° ENE 11:04:29 10° N
Cosmos 1725 Rocket 4.3 10:59:26 10° N 11:05:37 77° E 11:11:47 10° S
